Torna al catalogo

STARLINK-5440

AttivoComunicazioniVLEO
NORAD 54785·PAYLOAD·🇺🇸 United States

Lanciato Dec 17, 2022 da Cape Canaveral Space Force Station

Loading…

Prossimi Passaggi (prossime 24 ore)

TLE

AggiornatoSource: CelesTrak SupGP

Epoca: Sep 14, 2026, 20:32 UTC

1 54785C 22175AD  26257.85604167 -.00012315  00000+0 -36392-3 0  2571
2 54785  53.1579 206.0777 0001360  97.4309  14.0088 15.34389700    14

Traccia STARLINK-5440 in tempo reale con AllMySat

Download on the App Store